This is the latest recevied weather packets stored in our database for station/object N2PUI. If no packets are shown the sender has not sent any weather packets the latest 10 day(s).
| Time | Temp. | Humidity | Pressure | Rain* | Wind** | Luminosity | Snow |
|---|---|---|---|---|---|---|---|
| 1777647862 | 10° C | 58% | 1013.4 hPa | 0 mm | - | 288 W/m² | - |
| 1777647559 | 10° C | 58% | 1013.4 hPa | 0 mm | - | 207 W/m² | - |
| 1777646649 | 10° C | 59% | 1013.1 hPa | 0 mm | - | 144 W/m² | - |
| 1777646345 | 10° C | 60% | 1013.3 hPa | 0 mm | - | 225 W/m² | - |
| 1777646041 | 10° C | 60% | 1013.6 hPa | 0 mm | - | 248 W/m² | - |
| 1777645738 | 8.89° C | 62% | 1013.5 hPa | 0 mm | - | 258 W/m² | - |
| 1777645435 | 8.89° C | 63% | 1013.6 hPa | 0 mm | - | 290 W/m² | - |
| 1777645131 | 9.44° C | 62% | 1013.4 hPa | 0 mm | - | 850 W/m² | - |
| 1777644827 | 8.89° C | 63% | 1013.4 hPa | 0 mm | - | 752 W/m² | - |
| 1777644525 | 10.56° C | 61% | 1013.4 hPa | 0 mm | - | 707 W/m² | - |
| 1777644221 | 10° C | 63% | 1013.5 hPa | 0 mm | - | 639 W/m² | - |
| 1777643917 | 10° C | 61% | 1013.6 hPa | 0 mm | - | 269 W/m² | - |
| 1777643615 | 9.44° C | 63% | 1013.8 hPa | 0 mm | - | 714 W/m² | - |
| 1777643009 | 8.89° C | 65% | 1013.8 hPa | 0 mm | - | 667 W/m² | - |
| 1777642705 | 8.89° C | 67% | 1013.8 hPa | 0 mm | - | 365 W/m² | - |
| 1777642402 | 8.33° C | 65% | 1013.8 hPa | 0 mm | - | 592 W/m² | - |
| 1777642099 | 8.33° C | 68% | 1014 hPa | 0 mm | - | 559 W/m² | - |
| 1777641795 | 8.33° C | 69% | 1013.8 hPa | 0 mm | - | 528 W/m² | - |
| 1777641490 | 7.78° C | 70% | 1014 hPa | 0 mm | - | 475 W/m² | - |
| 1777641185 | 7.78° C | 72% | 1014 hPa | 0 mm | - | 421 W/m² | - |
| 1777639972 | 6.67° C | 88% | 1014.1 hPa | 0 mm | - | 364 W/m² | - |
| 1777638759 | 4.44° C | 92% | 1014.2 hPa | 0 mm | - | 286 W/m² | - |
| 1777638454 | 3.89° C | 92% | 1014.3 hPa | 0 mm | - | 247 W/m² | - |
| 1777638152 | 2.78° C | 93% | 1014.1 hPa | 0 mm | - | 67 W/m² | - |
| 1777637847 | 2.78° C | 92% | 1013.8 hPa | 0 mm | - | 230 W/m² | - |
* Rain latest hour (hover to see other rain measurements)
** Current wind speed in m/s (hover to see current wind gust speed)